This is the latest recevied weather packets stored in our database for station/object KD9ZDW. If no packets are shown the sender has not sent any weather packets the latest 10 day(s).
| Time | Temp. | Humidity | Pressure | Rain* | Wind** | Luminosity | Snow |
|---|---|---|---|---|---|---|---|
| 1777829127 | 15.56° C | 41% | 1016.6 hPa | 0 mm | - | 543 W/m² | - |
| 1777828824 | 15.56° C | 37% | 1016.9 hPa | 0 mm | - | 590 W/m² | - |
| 1777828520 | 15° C | 38% | 1016.8 hPa | 0 mm | - | 616 W/m² | - |
| 1777828218 | 15.56° C | 40% | 1016.8 hPa | 0 mm | - | 597 W/m² | - |
| 1777827914 | 15° C | 40% | 1017 hPa | 0 mm | - | 554 W/m² | - |
| 1777827612 | 15.56° C | 37% | 1017 hPa | 0 mm | - | 581 W/m² | - |
| 1777827309 | 15° C | 38% | 1017.2 hPa | 0 mm | - | 578 W/m² | - |
| 1777827005 | 15° C | 38% | 1017.4 hPa | 0 mm | - | 552 W/m² | - |
| 1777826702 | 15° C | 38% | 1017.3 hPa | 0 mm | - | 314 W/m² | - |
| 1777826399 | 14.44° C | 38% | 1017.3 hPa | 0 mm | - | 283 W/m² | - |
| 1777826096 | 15° C | 40% | 1017.3 hPa | 0 mm | - | 313 W/m² | - |
| 1777825792 | 14.44° C | 40% | 1017.3 hPa | 0 mm | - | 278 W/m² | - |
| 1777825490 | 15° C | 41% | 1017.5 hPa | 0 mm | - | 297 W/m² | - |
| 1777825187 | 14.44° C | 40% | 1017.5 hPa | 0 mm | - | 309 W/m² | - |
| 1777824884 | 14.44° C | 42% | 1017.4 hPa | 0 mm | - | 348 W/m² | - |
| 1777824580 | 13.89° C | 43% | 1017.7 hPa | 0 mm | - | 249 W/m² | - |
| 1777824277 | 14.44° C | 44% | 1017.7 hPa | 0 mm | - | 205 W/m² | - |
| 1777823973 | 13.89° C | 44% | 1017.7 hPa | 0 mm | - | 288 W/m² | - |
| 1777823670 | 14.44° C | 43% | 1017.9 hPa | 0 mm | - | 299 W/m² | - |
| 1777823367 | 13.89° C | 42% | 1018 hPa | 0 mm | - | 359 W/m² | - |
| 1777823065 | 13.89° C | 44% | 1018 hPa | 0 mm | - | 324 W/m² | - |
| 1777822762 | 13.89° C | 45% | 1018.2 hPa | 0 mm | - | 323 W/m² | - |
| 1777822460 | 13.33° C | 44% | 1018.2 hPa | 0 mm | - | 338 W/m² | - |
| 1777822157 | 13.89° C | 48% | 1018.1 hPa | 0 mm | - | 289 W/m² | - |
| 1777821855 | 13.33° C | 47% | 1018.2 hPa | 0 mm | - | 272 W/m² | - |
* Rain latest hour (hover to see other rain measurements)
** Current wind speed in m/s (hover to see current wind gust speed)